Regional Weather Roundup
Issued by NWS Sioux Falls, SD

Home | Current Version | Previous Version | Graphics & Text | Print | Product List | Glossary On
Versions: 1 2 3 4 5 6 7 8 9 10 11 12 13 14 15 16 17 18 19 20 21 22 23 24 25 26 27 28 29 30 31 32 33 34 35 36 37 38 39 40 41 42 43 44 45 46 47 48 49 50
000
ASUS43 KFSD 011410
RWRFSD

WEATHER ROUNDUP FOR SE SOUTH DAKOTA/SW MINNESOTA/NW IOWA
NATIONAL WEATHER SERVICE SIOUX FALLS SD
900 AM CDT MON SEP 01 2014

NOTE: "FAIR" INDICATES FEW OR NO CLOUDS BELOW 12,000 FEET WITH NO
SIGNIFICANT WEATHER AND OR OBSTRUCTIONS TO VISIBILITY.


SDZ038>040-050-052>070-011500-
SOUTHEAST SOUTH DAKOTA

CITY           SKY/WX    TMP DP  RH WIND       PRES   REMARKS
CHAMBERLAIN    SUNNY     57  53  86 W7        29.84F
HURON          SUNNY     62  58  86 NW8       29.79R
MADISON        CLOUDY    59  59 100 W7        29.79R
MITCHELL       SUNNY     63  59  87 NW12      29.81R
SIOUX FALLS    MOSUNNY   66  62  87 W7        29.78R
WINNER         FAIR      59  53  80 W12       29.87S
YANKTON        SUNNY     64  61  88 W10       29.81R
$$

MNZ071-072-080-081-089-090-097-098-011500-
SOUTHWEST MINNESOTA

CITY           SKY/WX    TMP DP  RH WIND       PRES   REMARKS
FAIRMONT       PTSUNNY   64  61  88 W5        29.73R
JACKSON        PTSUNNY   64  61  88 W7        29.75R
LUVERNE        PTSUNNY   63  59  88 CALM      29.78R
MARSHALL       MOSUNNY   63  57  82 NW7       29.73R
MONTEVIDEO     SUNNY     66  64  94 N7        29.73R
PIPESTONE      CLOUDY    61  61 100 NW9       29.78R FOG
REDWOOD FALLS  CLOUDY    64  63  96 W7        29.72R
TRACY          PTSUNNY   67  63  87 NW8       29.75R
WINDOM         PTSUNNY   64  61  88 NW8       29.74R
WORTHINGTON    PTSUNNY   64  61  88 W9        29.78R
$$

IAZ001>003-012>014-020>022-031-032-NEZ013-014-SDZ071-011500-
NORTHWEST IOWA

CITY           SKY/WX    TMP DP  RH WIND       PRES   REMARKS
CHEROKEE       MOSUNNY   64  63  97 W6        29.77R
DENISON        CLOUDY    64  64 100 W7        29.78R
ESTHERVILLE    PTSUNNY   65  63  93 W7        29.74R
LE MARS        PTSUNNY   64  63  94 VRB7      29.80R
ORANGE CITY    MOSUNNY   64  63  94 NW8       29.78R
SHELDON        SUNNY     64  63  94 W7        29.76S
SIOUX CITY     CLOUDY    65  62  90 W3        29.80R
SPENCER        CLOUDY    65  62  90 W9        29.77R
STORM LAKE     MOSUNNY   63  63 100 W14       29.77R
$$

ABBREVIATIONS USED IN REMARKS
   TC - TEMPERATURE IN CELSIUS
  WCI - WIND CHILL INDEX
   HX - HEAT INDEX
  VSB - VISIBILITY



USA.gov is the U.S. government's official web portal to all federal, state and local government web resources and services.